Location: Keroma Community Hall
(38.2181°N, 100.0654°W)
Time: 12:45:55
(UTC+00:00)

Daily predictions for brighter satellites

Satellite Brightness Start Highest point End
(mag) Time Altitude Azimuth Time Altitude Azimuth Time Altitude Azimuth
Sich 1 4.0 12:01:24 10° SSE 12:05:40 49° E 12:09:58 10° NNE
CZ-4C R/B 3.3 12:06:55 22° NW 12:06:55 22° NW 12:11:14 10° N
Cosmos 1437 Rocket 3.3 12:08:59 10° N 12:12:42 56° E 12:16:24 10° SSE
SAR-Lupe-1 3.9 12:10:03 10° S 12:13:35 66° WSW 12:15:55 20° NNW
ATLAS 5 CENTAUR R/B 1.3 12:13:50 10° SSW 12:17:44 86° ESE 12:22:02 10° NE
Cosmos 1743 Rocket 4.0 12:13:36 10° SSW 12:17:47 40° WNW 12:22:00 10° N
Cosmos 1844 4.1 12:12:59 10° SW 12:18:05 37° WNW 12:23:14 10° N
Okean O Rocket 4.1 12:17:13 10° NE 12:20:54 25° E 12:24:31 10° SSE
GPS 2-04 Rocket1 3.9 12:20:03 21° WSW 12:21:54 30° SSW 12:25:19 10° SE
ALOS 4.4 12:18:42 10° NNW 12:18:46 10° NNW 12:18:46 10° NNW
Cosmos 2184 Rocket 4.4 12:20:29 10° SW 12:26:21 40° WNW 12:32:20 10° N
COSMO-SKYMED 1 2.9 12:22:34 10° S 12:26:43 45° W 12:30:53 10° NNW
Cosmos 372 Rocket 4.1 12:27:51 10° SW 12:32:43 46° WNW 12:37:38 10° N
PSLV R/B 4.1 12:29:33 10° S 12:33:35 52° W 12:37:36 10° NNW
Cosmos 1805 Rocket 3.7 12:31:55 10° SSW 12:36:14 52° W 12:40:37 10° N
Spot 2 4.4 12:32:58 10° NNE 12:38:07 88° WNW 12:43:03 10° SSW
MOS 1 Rocket 3.4 12:35:03 10° S 12:39:53 85° WSW 12:45:03 10° NNW
ERS-2 3.9 12:40:38 10° SW 12:42:40 14° W 12:42:47 14° W
Cosmos 1666 Rocket 3.6 12:39:33 10° S 12:43:52 85° E 12:48:13 10° N
USA 234 3.8 12:37:23 10° NE 12:43:53 65° SE 12:50:22 10° SSW
ATLAS CENTAUR R/B 2.6 12:42:10 16° WNW 12:43:54 21° WSW 12:47:00 10° SSW
BREEZE-M (TANK) 3.2 12:35:15 10° SW 12:45:45 84° NW 12:48:47 10° NE
PAYLOAD B 4.4 12:42:08 10° NNE 12:47:40 78° ESE 12:53:09 10° S
CZ-2C R/B 2.1 12:48:16 10° SW 12:51:17 34° SSE 12:54:13 10° ESE
EO 1 Delta rocket 4.3 12:48:57 10° SSW 12:53:42 41° W 12:58:05 10° NNW
Cosmos 2082 Rocket 3.9 12:49:01 10° N 12:54:03 31° ENE 12:59:04 10° ESE
Atlas Centaur 2 3.6 12:49:35 10° WSW 12:55:16 29° SSW 12:59:57 10° SE
Meteor 2-12 Rocket 4.5 12:49:54 10° SSW 12:55:58 61° W 13:02:05 10° N
Cosmos 1833 Rocket 3.3 12:51:29 10° NNW 12:57:02 58° ENE 13:02:32 10° SE
Cosmos 405 Rocket 4.3 12:55:21 10° WSW 12:57:20 14° WNW 12:59:20 10° NW
Cosmos 1689 Rocket 3.8 12:55:47 10° SW 12:57:38 16° W 12:59:22 11° WNW
NOAA 6 4.0 12:52:51 10° N 12:57:57 70° WNW 13:03:01 10° SSW
ATLAS 2AS CENTAUR R/B 4.5 12:53:49 10° WNW 12:58:06 15° NNW 13:02:27 10° N
CZ-4B R/B 3.7 12:52:45 10° NNE 12:58:08 68° ESE 13:03:36 10° S
SEDSat Delta rocket 4.5 12:56:37 10° WSW 13:01:02 34° S 13:05:00 10° ESE
Cosmos 1812 4.2 13:00:05 10° NW 13:02:42 18° W 13:05:19 10° SW
Cosmos 2366 rocket 4.1 13:00:30 10° S 13:06:50 87° E 13:13:08 10° N
Cosmos 2218 Rocket 4.1 13:00:56 10° S 13:07:12 89° W 13:13:26 10° N
Cosmos 1633 Rocket 3.1 13:02:53 10° SSW 13:07:15 63° W 13:11:39 10° N
Envisat 3.2 13:05:37 10° N 13:10:29 47° WNW 13:15:19 10° SW
COSMOS 2455 3.8 13:07:00 10° WSW 13:11:51 25° NW 13:16:45 10° N
SMAP 3.0 13:08:06 10° N 13:12:45 75° WNW 13:17:23 10° SSW
USA 81 4.2 13:07:58 10° SSW 13:13:05 52° W 13:18:13 10° N
Cosmos 1939 Rocket 4.4 13:10:46 10° NNE 13:14:41 42° E 13:18:36 10° S
Cosmos 2278 Rocket 2.4 13:12:15 10° SW 13:17:44 52° WNW 13:23:16 10° NNE
USA 81 4.3 23:40:32 10° N 23:45:38 47° E 23:50:42 10° SSE
Cosmos 1151 Rocket 2.9 23:45:33 10° S 23:49:48 75° E 23:54:04 10° N
Sich 1 3.8 23:48:00 10° NNW 23:52:17 58° W 23:56:29 10° S
AQUARIUS 4.4 23:48:39 10° SE 23:52:54 46° ENE 23:57:13 10° N
Cosmos 1602 4.3 23:52:03 10° N 23:55:42 37° E 23:59:17 10° SSE
